This is the latest recevied weather packets stored in our database for station/object NA9VY-8. If no packets are shown the sender has not sent any weather packets the latest 10 day(s).
| Time | Temp. | Humidity | Pressure | Rain* | Wind** | Luminosity | Snow |
|---|---|---|---|---|---|---|---|
| 1777350960 | 13.89° C | 99% | 1014.9 hPa | 0 mm | - | 0 W/m² | - |
| 1777350656 | 13.89° C | 99% | 1015.1 hPa | 0 mm | - | 0 W/m² | - |
| 1777350353 | 13.89° C | 99% | 1015.6 hPa | 0 mm | - | 0 W/m² | - |
| 1777350050 | 13.89° C | 99% | 1015.9 hPa | 0 mm | - | 0 W/m² | - |
| 1777349747 | 13.89° C | 99% | 1016 hPa | 0 mm | - | 0 W/m² | - |
| 1777349444 | 13.89° C | 99% | 1016.4 hPa | 0 mm | - | 0 W/m² | - |
| 1777349143 | 13.89° C | 99% | 1016.9 hPa | 0 mm | - | 0 W/m² | - |
| 1777348840 | 14.44° C | 99% | 1016.8 hPa | 3.56 mm | - | 0 W/m² | - |
| 1777348538 | 14.44° C | 99% | 1016.6 hPa | 3.56 mm | - | 0 W/m² | - |
| 1777348235 | 15.56° C | 99% | 1017.5 hPa | 3.05 mm | - | 0 W/m² | - |
| 1777347933 | 15.56° C | 99% | 1012 hPa | 0 mm | - | 0 W/m² | - |
| 1777347631 | 15.56° C | 99% | 1012 hPa | 0 mm | - | 0 W/m² | - |
| 1777347326 | 15.56° C | 99% | 1011.9 hPa | 0.51 mm | - | 0 W/m² | - |
| 1777347023 | 15.56° C | 99% | 1012.3 hPa | 0 mm | - | 0 W/m² | - |
| 1777346720 | 15.56° C | 99% | 1012.2 hPa | 0 mm | - | 0 W/m² | - |
| 1777346415 | 15.56° C | 99% | 1012.4 hPa | 0 mm | - | 0 W/m² | - |
| 1777346113 | 15.56° C | 99% | 1012.8 hPa | 0 mm | - | 0 W/m² | - |
| 1777345810 | 16.11° C | 99% | 1012.4 hPa | 0 mm | - | 0 W/m² | - |
| 1777345508 | 16.11° C | 99% | 1012.7 hPa | 0 mm | - | 0 W/m² | - |
| 1777345204 | 16.11° C | 99% | 1012.9 hPa | 0 mm | - | 0 W/m² | - |
| 1777344900 | 16.11° C | 99% | 1012.6 hPa | 0 mm | - | 0 W/m² | - |
| 1777344596 | 16.11° C | 99% | 1013.1 hPa | 0 mm | - | 0 W/m² | - |
| 1777344293 | 16.11° C | 99% | 1012 hPa | 0 mm | - | 0 W/m² | - |
| 1777343990 | 16.11° C | 99% | 1013 hPa | 4.83 mm | - | 0 W/m² | - |
| 1777343688 | 16.11° C | 99% | 1013.1 hPa | 13.72 mm | - | 0 W/m² | - |
* Rain latest hour (hover to see other rain measurements)
** Current wind speed in m/s (hover to see current wind gust speed)